Location: Ammerl�gen
(47.2167°N, 9.6000°E)
Time: 16:20:12
(UTC+00:00)

SPOT 5 - Pass Details

Date: 21 April 2021
Orbit: 623 x 814 km, 98.2° (Epoch: 07 May)

Event Time Altitude Azimuth Distance (km) Brightness Sun altitude
Exits shadow 20:25:52 37° 108° (ESE) 1,061 3.3 -19.1°
Maximum altitude 20:27:03 45° 69° (ENE) 938 3.2 -19.2°
Drops below altitude 10° 20:31:37 10° 357° (N) 2,209 6.0 -19.7°
Sets 20:34:02 0° 352° (N) 3,166 7.1 -20.0°
